Weather History for KTRK - March, 2014

Change the Weather History Date:

Friday, March 28, 2014

  Actual Average Record
Temperature  
Mean Temperature 38 °F -  
Max Temperature 46 °F 49 °F 67 °F (1986)
Min Temperature 30 °F 22 °F 6 °F (1975)
Degree Days  
Heating Degree Days 27    
Moisture  
Dew Point 30 °F    
Average Humidity 76    
Maximum Humidity 93    
Minimum Humidity 53    
Precipitation  
Precipitation 0.00 in - - ()
Sea Level Pressure  
Sea Level Pressure 30.11 in    
Wind  
Wind Speed 4 mph (SSW)    
Max Wind Speed 17 mph    
Max Gust Speed 26 mph    
Visibility 10 miles    
Events      
Averages and records for this station are not official NWS values.
T = Trace of Precipitation, MM = Missing Value Source: NWS Daily Summary

Daily Weather History Graph

Daily Weather History Graph

Search for Another Location

Airport or City:

Trip Planner

Search our weather history database for the weather conditions in past years. The results will help you decide how hot, cold, wet, or windy it might be!

Date:

Astronomy

Mar. 28, 2014 Rise Set
Actual Time 6:51 AM PDT 7:20 PM PDT
Civil Twilight 6:24 AM PDT 7:47 PM PDT
Nautical Twilight 5:52 AM PDT 8:19 PM PDT
Astronomical Twilight 5:20 AM PDT 8:51 PM PDT
Moon 5:24 AM PDT (3/28) 5:23 PM PDT (3/28)
Length of Visible Light 13h 23m
Length of Day
12h 29m
Waning Crescent, 5% of the Moon is Illuminated
Mar 28
Waning Crescent
Mar 30
New
Apr 7
First Quarter
Apr 15
Full
Apr 22
Last Quarter

Hourly Weather History & Observations

Time (PDT) Temp. Windchill Dew Point Humidity Pressure Visibility Wind Dir Wind Speed Gust Speed Precip Events Conditions
12:15 AM 30.2 °F - 26.6 °F 86% 30.11 in 10.0 mi Calm Calm - N/A   Mostly Cloudy
12:35 AM 30.2 °F - 26.6 °F 86% 30.11 in 10.0 mi Calm Calm - N/A   Mostly Cloudy
12:55 AM 30.2 °F - 28.4 °F 93% 30.11 in 10.0 mi Calm Calm - N/A   Mostly Cloudy
1:15 AM 32.0 °F - 28.4 °F 87% 30.11 in 10.0 mi Calm Calm - N/A   Mostly Cloudy
1:35 AM 32.0 °F 28.7 °F 28.4 °F 87% 30.11 in 10.0 mi SE 3.5 mph - N/A   Overcast
1:55 AM 30.2 °F 26.7 °F 28.4 °F 93% 30.11 in 10.0 mi NW 3.5 mph - N/A   Mostly Cloudy
2:15 AM 30.2 °F - 28.4 °F 93% 30.11 in 10.0 mi Calm Calm - N/A   Scattered Clouds
2:35 AM 30.2 °F - 28.4 °F 93% 30.10 in 10.0 mi Calm Calm - N/A   Mostly Cloudy
2:55 AM 32.0 °F 28.7 °F 28.4 °F 87% 30.10 in 10.0 mi WNW 3.5 mph - N/A   Overcast
3:15 AM 30.2 °F - 28.4 °F 93% 30.10 in 10.0 mi Calm Calm - N/A   Overcast
3:35 AM 30.2 °F - 28.4 °F 93% 30.10 in 10.0 mi Calm Calm - N/A   Overcast
3:55 AM 30.2 °F - 28.4 °F 93% 30.09 in 10.0 mi Calm Calm - N/A   Overcast
4:15 AM 32.0 °F - 28.4 °F 87% 30.09 in 10.0 mi Calm Calm - N/A   Overcast
4:35 AM 32.0 °F - 28.4 °F 87% 30.09 in 10.0 mi Calm Calm - N/A   Overcast
4:55 AM 32.0 °F 28.7 °F 28.4 °F 87% 30.09 in 10.0 mi North 3.5 mph - N/A   Scattered Clouds
5:15 AM 32.0 °F - 30.2 °F 93% 30.09 in 10.0 mi Calm Calm - N/A   Clear
5:35 AM 32.0 °F - 28.4 °F 87% 30.11 in 10.0 mi Calm Calm - N/A   Scattered Clouds
5:55 AM 32.0 °F - 30.2 °F 93% 30.11 in 10.0 mi Calm Calm - N/A   Mostly Cloudy
6:15 AM 32.0 °F - 28.4 °F 87% 30.11 in 10.0 mi Calm Calm - N/A   Overcast
6:35 AM 32.0 °F 25.6 °F 30.2 °F 93% 30.11 in 10.0 mi SSW 6.9 mph - N/A   Overcast
6:50 AM 33.8 °F - 28.4 °F 81% 30.12 in 10.0 mi Calm Calm - N/A   Overcast
7:55 AM 35.6 °F 29.2 °F 28.4 °F 75% 30.14 in 10.0 mi SSW 8.1 mph - N/A   Scattered Clouds
8:50 AM 37.4 °F 32.8 °F 28.4 °F 70% 30.15 in 10.0 mi SW 5.8 mph - N/A   Scattered Clouds
9:50 AM 39.2 °F 32.0 °F 28.4 °F 65% 30.17 in 10.0 mi SSW 11.5 mph 18.4 mph N/A   Scattered Clouds
10:50 AM 41.0 °F 34.7 °F 30.2 °F 65% 30.18 in 10.0 mi SW 10.4 mph - N/A   Mostly Cloudy
11:50 AM 42.8 °F 37.5 °F 30.2 °F 61% 30.19 in 10.0 mi SSW 9.2 mph 16.1 mph N/A   Overcast
12:50 PM 46.4 °F 40.7 °F 30.2 °F 53% 30.17 in 10.0 mi SSW 12.7 mph 18.4 mph N/A   Mostly Cloudy
1:50 PM 46.4 °F 40.1 °F 30.2 °F 53% 30.17 in 10.0 mi SSW 15.0 mph - N/A   Mostly Cloudy
2:45 PM 44.6 °F 38.8 °F 32.0 °F 61% 30.15 in 10.0 mi SW 11.5 mph 18.4 mph N/A   Mostly Cloudy
3:45 PM 44.6 °F 38.4 °F 30.2 °F 57% 30.13 in 10.0 mi SSW 12.7 mph 17.3 mph N/A   Overcast
4:50 PM 42.8 °F 36.2 °F 30.2 °F 61% 30.12 in 10.0 mi SSW 12.7 mph 16.1 mph N/A   Overcast
6:15 PM 41.0 °F 33.9 °F 32.0 °F 70% 30.11 in 10.0 mi South 12.7 mph 20.7 mph N/A   Overcast
6:35 PM 41.0 °F 35.2 °F 32.0 °F 70% 30.10 in 10.0 mi SSW 9.2 mph 16.1 mph N/A   Overcast
6:55 PM 41.0 °F 32.5 °F 30.2 °F 65% 30.11 in 10.0 mi South 17.3 mph 21.9 mph N/A   Overcast
7:15 PM 41.0 °F 36.4 °F 32.0 °F 70% 30.11 in 10.0 mi South 6.9 mph - N/A   Overcast
7:35 PM 41.0 °F 35.2 °F 30.2 °F 65% 30.11 in 10.0 mi SSE 9.2 mph 21.9 mph N/A   Overcast
7:55 PM 41.0 °F 33.9 °F 30.2 °F 65% 30.10 in 10.0 mi South 12.7 mph 20.7 mph N/A   Overcast
8:15 PM 41.0 °F 34.3 °F 30.2 °F 65% 30.11 in 10.0 mi South 11.5 mph 18.4 mph N/A   Overcast
8:35 PM 39.2 °F 33.0 °F 30.2 °F 70% 30.11 in 10.0 mi South 9.2 mph 17.3 mph N/A   Overcast
8:55 PM 39.2 °F 31.2 °F 30.2 °F 70% 30.12 in 10.0 mi South 13.8 mph 18.4 mph N/A   Overcast
9:15 PM 39.2 °F 32.5 °F 30.2 °F 70% 30.11 in 10.0 mi SSE 10.4 mph 19.6 mph N/A   Overcast
9:35 PM 39.2 °F 32.5 °F 30.2 °F 70% 30.11 in 10.0 mi SSE 10.4 mph 18.4 mph N/A   Overcast
9:55 PM 41.0 °F 38.0 °F 30.2 °F 65% 30.10 in 10.0 mi ESE 4.6 mph - N/A   Overcast
10:15 PM 41.0 °F 34.7 °F 30.2 °F 65% 30.09 in 10.0 mi SSW 10.4 mph 25.3 mph N/A   Overcast
10:35 PM 39.2 °F 33.6 °F 30.2 °F 70% 30.08 in 10.0 mi WSW 8.1 mph 18.4 mph N/A   Scattered Clouds
10:55 PM 39.2 °F 33.0 °F 30.2 °F 70% 30.08 in 10.0 mi SSW 9.2 mph 20.7 mph N/A   Clear
11:15 PM 41.0 °F 33.9 °F 30.2 °F 65% 30.07 in 10.0 mi SW 12.7 mph 26.5 mph N/A   Clear
11:35 PM 41.0 °F 33.5 °F 30.2 °F 65% 30.08 in 10.0 mi SSW 13.8 mph 21.9 mph N/A   Clear
11:55 PM 41.0 °F 34.3 °F 30.2 °F 65% 30.08 in 10.0 mi SW 11.5 mph 21.9 mph N/A   Scattered Clouds